Погода в Узынбулаке

Поиск расширенной информации на нашем сайте:

Полезная информация:

Новости сайта



02.01.2020
Опубликован Долгосрочный прогноз погоды по городам России и ближнего зарубежья на январь 2020 года.
Карты: Прогноз на январь и февраль 2020 года, Сравнение прогнозируемой аномалии приземной температуры воздуха на январь 2020 года по разным моделям.




Погода в Узынбулаке - сегодня

Время (UTC), дата Ветер
(°,м/с) 
Видим.   Явления Облачность Т
(°С)
Тd
(°С)
f(%) Тe
(°С)
Pmin
(гПа)
dP
(гПа)
Po
(мм)
O2
(г/м3)
Тmin Tmax R s Состояние
почвы
09 22.10.21 310 (СЗ) 12-16{22}  20000 м    10/10 600 м кучево-дожд. 
[Cb cap]
+5.9 +1.9 75 +2  1031.8  1.5  741  292           
12 22.10.21 310 (СЗ) 11-15{20}  20000 м    10/10 600 м кучево-дожд. 
[Cb cap]
+6.7 -2 54 +3  1033.4  1.6  742  292           
15 22.10.21 320 (СЗ) 7{15}  20000 м    10/10 600 м кучево-дожд. 
[Cb cap]
+6.9 -2.7 50 +4  1035.5  2.1  743  292    +8.6       
18 22.10.21 310 (СЗ) 20000 м    10/10 600 м кучево-дожд. 
[Cb cap]
+6.9 -2 53 +4  1036.8  1.2  744  293    +8.6       
21 22.10.21 330 (СЗ) 20000 м    10/10 600 м кучево-дожд. 
[Cb cap]
+6.5 -0.6 60 +4  1037.6  0.7  745  293           
00 23.10.21 300 (СЗ) 8{24}  20000 м    10/10 600 м кучево-дожд. 
[Cb cap]
+5.9 -3.5 51 +3  1038.8  1.1  746  294           
03 23.10.21 220 (ЮЗ) 20000 м    8/6 600 м кучево-дожд., верхняя 
[Cb cap|Ci sp]
+5.3 -5.1 47 +6  1040.5  1.5  747  296           
06 23.10.21 080 (В) 20000 м    3/3 1000 м средняя 
[Sc|Ac trans]
+7.3 -4.7 42 +7  1039.9  -0.3  747  294  +4.5         
09 23.10.21 090 (В) 20000 м    1/1 1000 м 
[Sc]
+7.9 -6.7 35 +7  1037.9  -1.8  745  293           
12 23.10.21 090 (В) 20000 м    9/9 1000 м 
[Sc]
+7.3 -6 38 +7  1038.2  0.2  745  293           
15 23.10.21 200 (Ю) 20000 м    9/9 1000 м 
[Sc]
+6.1 -7.3 38 +6  1038.6  0.2  746  295    +8.5       
18 23.10.21 220 (ЮЗ) 20000 м    9/9 1000 м 
[Sc]
+4.7 -7.4 41 +4  1028  -0.8  745  296    +8.5       
21 23.10.21 200 (Ю) 20000 м    3/0 средняя, верхняя 
[Ac lent|Ci sp]
+3.4 -7.8 44 +4  1037.3  -0.9  744  297           
00 24.10.21 090 (В) 2{11}  20000 м    1/0 средняя 
[Ac trans]
+5.7 -2 58 +5  1035.7  -1.1  743  294           
03 24.10.21 230 (ЮЗ) 20000 м    3/1 1000 м верхняя 
[Sc|Ci fib]
+5.1 -2.8 57 +6  1035.5  -0.3  743  294           
06 24.10.21 110 (В) 20000 м    ясно 
+10.1 -0.7 47 +9  1033.1  -1.6  742  288  +0.3         
09 24.10.21 110 (В) 20000 м    ясно 
+12.2 +0.6 45 +11  1030.3  -2.4  740  285           
12 24.10.21 130 (ЮВ) 20000 м    ясно 
+10.1 +1.1 54 +9  1029.2  -1.3  739  287           
15 24.10.21 120 (ЮВ) 20000 м    ясно 
+8.7 -1.2 50 +6  1028  -1.4  738  288    +13.1       
18 24.10.21 120 (ЮВ) 14-18{20}  20000 м    ясно 
+8.1 -1.4 51 +4  1024.8  -3.1  736  288    +13.1       
21 24.10.21 140 (ЮВ) 12-16{21}  20000 м    ясно 
+7.6 -1.7 52 +4  1021.7  -3.1  734  288           
00 25.10.21 140 (ЮВ) 16-20{23}  20000 м    ясно 
+8.1 -2.5 47 +4  1018.7  -2.7  732  287           
03 25.10.21 150 (ЮВ) 20000 м    ясно 
+9.5 -2.5 43 +7  1017.5  -1  731  285           
06 25.10.21 150 (ЮВ) 17-24{26}  20000 м    ясно 
+11.1 -0.7 44 +8  1016.2  -1  730  283  +4.6         
09 25.10.21 140 (ЮВ) 14-18{27}  20000 м    ясно 
+13.1 -1.2 37 +11  1015  -0.9  729  281           
Время (UTC), дата Ветер
(°,м/с) 
Видим.   Явления Облачность Т
(°С)
Тd
(°С)
f(%) Тe
(°С)
Pmin
(гПа)
dP
(гПа)
Po
(мм)
O2
(г/м3)
Тmin Tmax R s Состояние
почвы

Для получения пояснительной информации подведите курсор к названию столбца.

ПОГОДА в Узынбулаке - архив

Всё, что Вы хотите узнать о погоде в Узынбулаке - удобно и подробно!

Выберите нужную дату (начиная с 1 января 2019* года) и нажмите кнопку "Найти".
Будут отображены архивные сводки погоды по пункту Узынбулак, начиная с указанной даты.


Отображать данные в формате CSV (для использования в таблицах Excel)


Внимание! Наш архив погоды предназначен исключительно для личного некоммерческого использования в познавательных целях. Если Вам необходимы официальные справки о состоянии погоды (для производственных, юридических, коммерческих и т.п. целей), обращайтесь в органы Росгидромета.

*Примечание: данная дата относится к архиву по метеостанциям СССР (Россия, СНГ, Балтия).
Архив по метеостанциям Зарубежной Европы и Азии (кроме Китая) хранится 10 дней, по другим регионам земного шара (Китай, Африка, Америка, Австралия, Океания) - 1 день.

Узынбулак - район местоположения метеостанции


Название, широта, долгота, высота метеостанции:
Узынбулак 45.9°ш. 82.2°д. 362 м над ур. моря [Казахстан]

Дополнительная информация

В oтличие oт бoльшинства пoгoдных сайтoв мы публикуем пoдрoбную метеoинфoрмацию в детальнoм прoфессиoнальнoм фoрмате.

Характеристики температуры и влажнoсти вoздуха измеряются на высoте 2 м в тени вдали oт зданий и деревьев.
Скoрoсть ветра измеряется на высoте 10 м (на урoвне рoста челoвека скoрoсть ветра ниже в 1.5-2 раза). Если метеoстанция нахoдится в гoрoде или в лесу, тo скoрoсть ветра занижена на 2-4 м/с пo сравнению с oткрытым местoм. Скoрoсть ветра над акватoриями крупных рек и oзёр, а также на вершинах хoлмoв на 2-5 м/с выше, чем в oбычных услoвиях.
Атмoсфернoе давление в разных тoчках местнoсти мoжет значительнo oтличаться oт давления на метеoстанции, в зависимoсти oт услoвий рельефа (при пoдъёме на 10 м давление пoнижается примернo на 1 мм рт.ст.).